DateTime,F1_A11,F1_S11,BsB_S11,BsG_S11,BsR_S11,BbsB_S11,BbsG_S11,BbsR_S11,BaB_A11,BaG_A11,BaR_A11,T_S11,U_S11,P_S11,T1_A11
2016-11-24T00:00:00Z,0000380,21000600,,,,,,,,,,25.4,00.0,0626.5,34.6
2016-11-24T00:01:00Z,0000380,21000600,,,,,,,,,,25.4,00.0,0626.5,34.6
2016-11-24T00:02:00Z,0000380,21000600,,,,,,,,,,25.4,00.0,0626.6,34.6
2016-11-24T00:03:00Z,0000380,61000600,,,,,,,,,,25.4,00.0,0626.6,34.6
2016-11-24T00:04:00Z,0000380,41000600,0000.34,0000.01,-000.20,-000.06,-000.22,-000.15,-000.12,-000.06,0000.39,25.4,00.0,0627.5,34.6
2016-11-24T00:05:00Z,0000380,01000600,-000.46,0000.62,0000.38,0000.02,0000.46,0000.04,0000.14,0000.23,-000.02,25.5,00.0,0627.6,34.6
2016-11-24T00:06:00Z,0000380,01000600,0000.25,0000.27,0000.28,0000.07,0000.02,0000.54,-000.05,0000.12,0000.02,25.5,00.0,0627.5,34.6
2016-11-24T00:07:00Z,0000380,01000600,0000.46,0000.86,0000.46,0000.28,0000.07,-000.15,-000.02,-000.20,-000.16,25.4,00.0,0627.6,34.6
2016-11-24T00:08:00Z,0000380,01000600,0000.89,-000.10,0000.24,-000.59,0000.28,0000.28,0000.23,0000.25,0000.06,25.4,00.0,0627.6,34.6
2016-11-24T00:09:00Z,0000380,01000600,0000.39,0000.28,0000.01,0000.75,0000.06,0000.32,0000.08,0000.04,0000.16,25.4,00.0,0627.6,34.6
2016-11-24T00:10:00Z,0000380,01000600,0000.44,0000.32,0000.04,0000.51,-000.39,-000.40,0000.02,-000.00,-000.20,25.4,00.0,0627.7,34.6
2016-11-24T00:11:00Z,0000380,01000600,-000.13,0001.28,0000.22,-000.34,0000.62,0000.03,0000.14,0000.05,0000.26,25.4,00.0,0627.7,34.6
2016-11-24T00:12:00Z,0000380,01000600,-000.42,0000.46,0000.29,-000.21,0000.23,-000.03,0000.05,0000.15,0000.11,25.3,00.0,0627.7,34.6
2016-11-24T00:13:00Z,0000380,01000600,0000.81,0000.88,0000.22,-000.70,0000.02,-000.07,-000.06,-000.02,-000.13,25.4,00.0,0627.6,34.6
2016-11-24T00:14:00Z,0000380,01000600,0001.16,-000.16,0000.48,0000.10,0000.42,0000.06,0000.04,0000.03,0000.21,25.4,00.0,0627.6,34.6
2016-11-24T00:15:00Z,0000380,01000600,0000.67,0000.25,-000.03,0000.04,0000.13,-000.11,-000.11,0000.02,-000.21,25.4,00.0,0627.6,34.6
2016-11-24T00:16:00Z,0000380,01000600,0001.13,-000.20,0000.08,0000.04,0000.55,0000.11,0000.21,0000.04,0000.21,25.3,00.0,0627.6,34.6
2016-11-24T00:17:00Z,0000380,01000600,-000.02,-000.02,-000.19,-000.55,0000.08,-000.47,0000.09,-000.03,0000.15,25.3,00.0,0627.7,34.6
2016-11-24T00:18:00Z,0000380,01000600,0000.38,0000.08,-000.27,0000.42,0000.49,-000.61,-000.06,0000.19,-000.14,25.3,00.0,0627.7,34.6
2016-11-24T00:19:00Z,0000380,01000600,-000.10,0000.30,0000.27,-000.54,0000.08,-000.02,0000.02,-000.05,0000.15,25.3,00.0,0627.7,34.6
2016-11-24T00:20:00Z,0000380,01000600,0000.21,0000.44,0000.06,0000.60,0000.46,-000.05,0000.11,-000.07,-000.17,25.3,00.0,0627.7,34.6
2016-11-24T00:21:00Z,0000380,01000600,0000.10,0000.08,0000.12,0000.33,0000.38,-000.27,-000.11,0000.18,0000.06,25.3,00.0,0627.7,34.6
2016-11-24T00:22:00Z,0000380,01000600,0000.23,0000.37,0000.51,-000.03,0000.02,0000.10,-000.09,-000.01,-000.01,25.3,00.0,0627.7,34.6
2016-11-24T00:23:00Z,0000380,01000600,0000.46,0000.42,-000.06,0000.75,0000.49,-000.31,0000.28,-000.01,0000.29,25.3,00.0,0627.7,34.6
2016-11-24T00:24:00Z,0000380,01000600,-000.31,0000.01,0000.03,0000.37,0000.29,0000.27,0000.00,0000.24,-000.18,25.3,00.0,0627.7,34.6
2016-11-24T00:25:00Z,0000380,01000600,-000.46,0000.29,0000.10,0000.50,0000.22,-000.53,0000.17,-000.11,0000.14,25.2,00.0,0627.7,34.6
2016-11-24T00:26:00Z,0000380,01000600,0000.25,0000.71,0000.02,0000.49,0000.54,-000.25,-000.07,0000.14,-000.03,25.2,00.0,0627.8,34.6
2016-11-24T00:27:00Z,0000380,01000600,0000.90,0000.93,0000.28,0000.24,0000.49,-000.42,0000.11,-000.03,0000.08,25.2,00.0,0627.8,34.6
2016-11-24T00:28:00Z,0000380,01000600,0001.55,0000.45,-000.07,-000.29,0000.29,0000.02,0000.10,0000.04,-000.07,25.2,00.0,0627.8,34.6
2016-11-24T00:29:00Z,0000380,01000600,0000.95,0000.58,0000.56,-000.43,0000.13,0000.05,0000.23,-000.06,0000.16,25.2,00.0,0627.8,34.5
2016-11-24T00:30:00Z,0000380,01000600,0000.84,0000.44,-000.14,0000.40,0000.30,0000.03,-000.10,0000.18,-000.17,25.3,00.0,0627.9,34.6
2016-11-24T00:31:00Z,0000380,01000600,0000.50,0000.20,0000.12,0000.58,0000.26,0000.28,0000.12,0000.02,0000.27,25.3,00.0,0627.9,34.5
2016-11-24T00:32:00Z,0000380,01000600,0000.56,0000.33,-000.15,-000.17,-000.12,-000.24,-000.12,-000.01,0000.02,25.3,00.0,0627.8,34.6
2016-11-24T00:33:00Z,0000380,01000600,0001.05,-000.50,0000.23,-000.28,0000.28,0000.40,-000.01,0000.23,-000.08,25.4,00.0,0627.8,34.6
2016-11-24T00:34:00Z,0000380,01000600,0000.37,0000.07,-000.11,0000.29,0000.62,0000.06,0000.03,0000.12,0000.13,25.4,00.0,0627.8,34.6
2016-11-24T00:35:00Z,0000380,01000600,-000.17,0000.16,0000.08,0000.64,0000.12,0000.04,0000.18,0000.15,0000.21,25.4,00.0,0627.8,34.5
2016-11-24T00:36:00Z,0000380,01000600,0000.37,-000.01,0000.46,-000.04,-000.01,-000.14,0000.13,-000.10,-000.24,25.4,00.0,0627.8,34.5
2016-11-24T00:37:00Z,0000380,01000600,0000.87,0001.04,0000.47,0000.82,0000.18,0000.06,0000.08,0000.09,0000.24,25.4,00.0,0627.8,34.5
2016-11-24T00:38:00Z,0000380,01000600,0001.18,0000.56,0000.50,-000.22,0000.10,-000.25,-000.06,0000.19,0000.01,25.4,00.0,0627.8,34.5
2016-11-24T00:39:00Z,0000380,01000600,0000.32,-000.12,0000.18,0000.33,0000.03,0000.05,0000.11,-000.13,-000.01,25.4,00.0,0627.8,34.5
2016-11-24T00:40:00Z,0000380,01000600,-000.14,0000.06,-000.05,0000.20,-000.25,-000.20,-000.01,0000.10,0000.21,25.4,00.0,0627.8,34.5
2016-11-24T00:41:00Z,0000380,01000600,0001.04,0000.71,0000.44,0000.01,0000.24,-000.54,-000.01,0000.07,-000.22,25.3,00.0,0627.8,34.5
2016-11-24T00:42:00Z,0000380,01000600,0000.37,0000.02,0000.23,0000.26,0000.26,0000.03,0000.16,0000.14,0000.30,25.3,00.0,0627.9,34.5
2016-11-24T00:43:00Z,0000380,01000600,0000.18,0000.92,0000.11,0000.16,0000.09,0000.10,0000.02,-000.18,-000.25,25.3,00.0,0627.9,34.5
2016-11-24T00:44:00Z,0000380,01000600,0000.35,0000.12,0000.31,0000.16,0000.25,0000.09,0000.04,0000.03,-000.15,25.3,00.0,0628.0,34.5
2016-11-24T00:45:00Z,0000380,01000600,0000.43,-000.03,0000.02,0000.24,0000.02,-000.43,0000.02,-000.12,0000.37,25.4,00.0,0628.0,34.5
2016-11-24T00:46:00Z,0000380,01000600,0000.27,0000.11,-000.00,0000.38,0000.67,0000.09,-000.08,0000.16,-000.16,25.4,00.0,0628.0,34.5
2016-11-24T00:47:00Z,0000380,01000600,0000.12,0000.52,0000.10,0000.82,0000.06,0000.10,0000.17,0000.14,-000.01,25.4,00.0,0628.0,34.5
2016-11-24T00:48:00Z,0000380,01000600,0000.07,0000.05,-000.01,0000.58,0000.13,-000.33,0000.09,0000.13,0000.36,25.4,00.0,0628.1,34.5
2016-11-24T00:49:00Z,0000380,01000600,0000.42,0000.56,-000.05,-000.24,0000.25,-000.05,0000.03,-000.04,-000.23,25.4,00.0,0628.1,34.5
2016-11-24T00:50:00Z,0000380,01000600,-000.18,0000.08,-000.26,0000.96,0000.55,-000.15,-000.11,-000.03,0000.20,25.4,00.0,0628.1,34.5
2016-11-24T00:51:00Z,0000380,01000600,0000.99,0000.57,-000.02,-000.33,0000.27,-000.52,0000.06,-000.03,-000.29,25.4,00.0,0628.1,34.5
2016-11-24T00:52:00Z,0000380,01000600,0000.18,0000.50,0000.25,0000.17,-000.03,-000.01,0000.02,0000.22,0000.02,25.4,00.0,0628.2,34.5
2016-11-24T00:53:00Z,0000380,01000600,0001.33,0000.15,0000.11,0000.52,0000.12,0000.13,0000.20,-000.01,0000.18,25.4,00.0,0628.2,34.5
2016-11-24T00:54:00Z,0000380,01000600,-000.08,-000.01,0000.92,-000.22,0000.32,0000.01,-000.13,0000.09,0000.19,25.4,00.0,0628.2,34.5
2016-11-24T00:55:00Z,0000380,01000600,0000.89,0000.17,0000.21,0000.07,0000.34,-000.22,-000.02,-000.19,-000.11,25.3,00.0,0628.2,34.5
2016-11-24T00:56:00Z,0000380,01000600,-000.04,0000.30,0000.28,0000.63,-000.11,-000.22,0000.19,0000.28,0000.01,25.4,00.0,0628.2,34.5
2016-11-24T00:57:00Z,0000380,41000600,,,,,,,,,,25.4,00.0,0628.2,34.5
2016-11-24T00:58:00Z,0000380,61000600,,,,,,,,,,25.2,00.0,0627.3,34.5
2016-11-24T00:59:00Z,0000380,21000600,,,,,,,,,,25.2,00.0,0627.3,34.5
2016-11-24T01:00:00Z,0000380,21000600,,,,,,,,,,25.2,00.0,0627.3,34.5
2016-11-24T01:01:00Z,0000380,21000600,,,,,,,,,,25.2,00.0,0627.3,34.5
2016-11-24T01:02:00Z,0000380,21000600,,,,,,,,,,25.3,00.0,0627.3,34.5
2016-11-24T01:03:00Z,0000380,61000600,,,,,,,,,,25.3,00.0,0627.3,34.5
2016-11-24T01:04:00Z,0000380,41000600,0000.20,0000.54,0000.00,0000.58,-000.14,0000.26,0000.19,0000.22,0000.36,25.4,00.0,0628.2,34.5
2016-11-24T01:05:00Z,0000380,01000600,0000.92,0000.27,0000.06,0000.75,-000.03,0000.04,0000.12,-000.14,-000.19,25.4,00.0,0628.3,34.5
2016-11-24T01:06:00Z,0000380,01000600,0000.04,0000.26,0000.05,0000.87,0000.03,0000.06,-000.25,0000.11,0000.09,25.4,00.0,0628.3,34.5
2016-11-24T01:07:00Z,0000380,01000600,-000.75,0000.40,0000.63,-000.05,0000.18,0000.07,0000.18,0000.21,0000.14,25.4,00.0,0628.3,34.5
2016-11-24T01:08:00Z,0000380,01000600,0001.56,0000.60,0000.02,-000.16,0000.32,0000.28,0000.23,0000.05,-000.14,25.4,00.0,0628.3,34.5
2016-11-24T01:09:00Z,0000380,01000600,0000.84,0000.33,0000.03,0000.17,0000.04,0000.26,-000.08,-000.18,-000.10,25.4,00.0,0628.3,34.5
2016-11-24T01:10:00Z,0000380,01000600,0000.57,0000.10,0000.35,0000.87,-000.10,0000.69,0000.12,0000.11,0000.21,25.4,00.0,0628.3,34.5
2016-11-24T01:11:00Z,0000380,01000600,0000.12,0000.78,0000.22,0000.53,0000.00,0000.57,-000.10,0000.16,-000.05,25.3,00.0,0628.3,34.5
2016-11-24T01:12:00Z,0000380,01000600,0001.30,0000.95,-000.14,0000.77,-000.16,0000.04,0000.03,0000.05,-000.08,25.3,00.0,0628.3,34.5
2016-11-24T01:13:00Z,0000380,01000600,-000.63,0000.33,0000.00,-000.47,0000.28,-000.05,0000.01,-000.16,0000.15,25.3,00.0,0628.3,34.5
2016-11-24T01:14:00Z,0000380,01000600,0001.99,0001.03,-000.28,0000.12,0000.16,0000.22,0000.09,0000.10,0000.03,25.3,00.0,0628.3,34.5
2016-11-24T01:15:00Z,0000380,01000600,-000.12,0000.20,0000.26,0001.20,0000.02,0000.21,0000.14,-000.01,0000.11,25.4,00.0,0628.3,34.5
2016-11-24T01:16:00Z,0000380,01000600,0000.41,0000.36,0000.38,0000.02,0000.39,0000.13,-000.04,0000.02,-000.05,25.4,00.0,0628.3,34.5
2016-11-24T01:17:00Z,0000380,01000600,0000.90,0000.47,-000.20,-000.19,0000.32,0000.35,0000.09,0000.10,0000.24,25.4,00.0,0628.3,34.5
2016-11-24T01:18:00Z,0000380,01000600,-000.19,0000.05,0000.22,0000.59,-000.18,0000.56,0000.16,0000.10,-000.16,25.4,00.0,0628.3,34.5
2016-11-24T01:19:00Z,0000380,01000600,0001.33,-000.34,-000.25,0000.47,-000.32,0000.15,-000.03,0000.08,-000.00,25.4,00.0,0628.3,34.5
2016-11-24T01:20:00Z,0000380,01000600,0000.48,-000.01,0000.03,0000.43,-000.20,0000.16,0000.05,0000.02,0000.20,25.4,00.0,0628.3,34.5
2016-11-24T01:21:00Z,0000380,01000600,0000.65,0000.13,0000.36,0000.99,0000.44,-000.03,-000.08,0000.18,-000.18,25.4,00.0,0628.3,34.5
2016-11-24T01:22:00Z,0000380,01000600,0001.04,0000.73,0000.35,0000.33,0000.05,0000.45,0000.25,0000.04,0000.02,25.3,00.0,0628.3,34.5
2016-11-24T01:23:00Z,0000380,01000600,0000.29,0000.56,0000.19,0000.50,-000.32,0000.40,-000.03,0000.15,0000.24,25.3,00.0,0628.3,34.5
2016-11-24T01:24:00Z,0000380,01000600,0000.15,0000.22,0000.13,-000.13,0000.41,-000.11,0000.16,-000.07,0000.06,25.3,00.0,0628.3,34.5
2016-11-24T01:25:00Z,0000380,01000600,0000.47,0000.64,-000.22,0000.01,0000.44,0000.65,-000.04,-000.16,-000.04,25.3,00.0,0628.3,34.5
2016-11-24T01:26:00Z,0000380,01000600,-000.11,-000.46,0000.24,0000.72,0000.27,0000.07,-000.05,0000.19,0000.04,25.2,00.0,0628.3,34.5
2016-11-24T01:27:00Z,0000380,01000600,0000.32,0000.71,0000.17,-000.06,0000.37,0000.32,0000.09,0000.01,-000.26,25.2,00.0,0628.4,34.5
2016-11-24T01:28:00Z,0000380,01000600,0001.49,0001.14,0000.21,0000.79,-000.32,0000.06,-000.01,-000.11,0000.35,25.2,00.0,0628.4,34.5
2016-11-24T01:29:00Z,0000380,01000600,-000.13,0000.61,-000.18,-000.23,-000.21,0000.45,0000.13,0000.02,-000.28,25.2,00.0,0628.4,34.5
2016-11-24T01:30:00Z,0000380,01000600,-000.07,0000.60,0000.35,0000.78,-000.29,0000.36,0000.06,0000.07,0000.36,25.2,00.0,0628.4,34.5
2016-11-24T01:31:00Z,0000380,01000600,0000.94,-000.10,-000.16,0000.42,-000.17,0000.28,0000.10,-000.05,-000.23,25.3,00.0,0628.4,34.5
2016-11-24T01:32:00Z,0000380,01000600,-000.97,0000.38,-000.41,0000.06,0000.19,0000.09,-000.04,0000.12,0000.13,25.3,00.0,0628.4,34.5
2016-11-24T01:33:00Z,0000380,01000600,0000.32,0000.12,0000.44,-000.09,-000.22,0000.64,0000.13,-000.05,0000.25,25.3,00.0,0628.4,34.5
2016-11-24T01:34:00Z,0000380,01000600,0001.21,0000.61,0000.17,0000.01,-000.15,0000.18,-000.07,0000.10,-000.16,25.3,00.0,0628.4,34.5
2016-11-24T01:35:00Z,0000380,01000600,0000.71,-000.02,0000.23,-000.09,0000.14,0000.18,0000.22,0000.24,0000.24,25.3,00.0,0628.4,34.5
2016-11-24T01:36:00Z,0000380,01000600,0001.03,0000.43,-000.20,0000.69,0000.35,0000.41,-000.14,-000.07,-000.05,25.2,00.0,0628.4,34.5
2016-11-24T01:37:00Z,0000380,01000600,0000.31,0000.32,-000.02,0000.38,0000.09,0000.41,0000.04,0000.11,0000.27,25.2,00.0,0628.4,34.5
2016-11-24T01:38:00Z,0000380,01000600,0000.41,0000.60,-000.06,0000.07,0000.23,0000.29,-000.05,0000.07,-000.28,25.2,00.0,0628.4,34.5
2016-11-24T01:39:00Z,0000380,01000600,0000.31,0001.07,-000.21,-000.10,0000.11,0000.33,0000.10,0000.07,0000.23,25.2,00.0,0628.4,34.5
2016-11-24T01:40:00Z,0000380,01000600,0001.13,0000.45,0000.09,0000.16,0000.49,0000.49,0000.07,0000.02,-000.03,25.2,00.0,0628.4,34.5
2016-11-24T01:41:00Z,0000380,01000600,0000.84,0000.35,0000.08,0000.69,-000.03,0000.17,0000.06,0000.11,0000.13,25.1,00.0,0628.4,34.5
2016-11-24T01:42:00Z,0000380,01000600,-000.05,0000.25,0000.32,0000.24,-000.06,0000.53,-000.10,-000.03,0000.02,25.1,00.0,0628.4,34.5
2016-11-24T01:43:00Z,0000380,01000600,0000.11,0000.48,0000.55,0000.61,0000.29,0000.15,0000.14,-000.07,-000.37,25.1,00.0,0628.4,34.5
2016-11-24T01:44:00Z,0000380,01000600,0000.41,0000.13,0000.11,-000.14,-000.38,-000.11,0000.08,-000.19,0000.01,25.1,00.0,0628.4,34.5
2016-11-24T01:45:00Z,0000380,01000600,0001.33,0000.22,0000.21,-000.46,0000.16,0000.64,-000.12,0000.07,-000.02,25.1,00.0,0628.4,34.5
2016-11-24T01:46:00Z,0000380,01000600,0000.90,0000.34,-000.58,0000.05,-000.09,0000.54,0000.06,0000.07,0000.21,25.1,00.0,0628.3,34.5
2016-11-24T01:47:00Z,0000380,01000600,-000.21,-000.14,-000.08,0000.32,0000.11,-000.06,-000.02,0000.05,0000.22,25.2,00.0,0628.4,34.5
2016-11-24T01:48:00Z,0000380,01000600,0001.07,0000.21,-000.24,-000.09,0000.11,0000.30,0000.01,-000.21,-000.29,25.2,00.0,0628.4,34.5
2016-11-24T01:49:00Z,0000380,01000600,0000.35,0000.86,0000.24,0000.55,0000.19,0000.56,0000.10,0000.29,0000.05,25.2,00.0,0628.4,34.5
2016-11-24T01:50:00Z,0000380,01000600,0001.66,0000.60,0000.02,0000.34,-000.04,0000.47,0000.08,0000.23,0000.46,25.3,00.0,0628.4,34.5
2016-11-24T01:51:00Z,0000380,01000600,0000.22,-000.44,0000.20,0000.40,-000.04,0000.70,0000.06,-000.00,-000.12,25.3,00.0,0628.4,34.5
2016-11-24T01:52:00Z,0000380,01000600,0000.09,0000.41,0000.22,-000.26,-000.06,0000.25,0000.02,0000.01,0000.16,25.2,00.0,0628.4,34.5
2016-11-24T01:53:00Z,0000380,01000600,0000.34,0000.57,0000.12,0000.48,0000.16,0000.04,0000.03,-000.09,-000.28,25.2,00.0,0628.4,34.5
2016-11-24T01:54:00Z,0000380,01000600,0000.76,0000.28,0000.27,-000.23,0000.10,0000.49,0000.05,0000.25,0000.36,25.2,00.0,0628.4,34.5
2016-11-24T01:55:00Z,0000380,01000600,0000.72,0000.09,-000.16,0000.14,0000.26,0000.04,0000.01,-000.08,-000.27,25.2,00.0,0628.5,34.5
2016-11-24T01:56:00Z,0000380,01000600,0000.76,0000.34,-000.08,0000.17,-000.06,-000.16,-000.03,0000.08,0000.29,25.2,00.0,0628.5,34.5
2016-11-24T01:57:00Z,0000380,41000600,,,,,,,,,,25.2,00.0,0628.4,34.5
2016-11-24T01:58:00Z,0000380,61000600,,,,,,,,,,25.0,00.0,0627.5,34.5
2016-11-24T01:59:00Z,0000380,21000600,,,,,,,,,,25.0,00.0,0627.5,34.5
2016-11-24T02:00:00Z,0000380,21000600,,,,,,,,,,25.0,00.0,0627.5,34.5
2016-11-24T02:01:00Z,0000380,21000600,,,,,,,,,,25.0,00.0,0627.5,34.5
2016-11-24T02:02:00Z,0000380,21000600,,,,,,,,,,25.0,00.0,0627.5,34.5
2016-11-24T02:03:00Z,0000380,61000600,,,,,,,,,,25.0,00.0,0627.5,34.5
2016-11-24T02:04:00Z,0000388,41000608,0000.16,-000.40,0000.41,0000.17,-000.07,-000.32,0000.13,0000.23,-000.08,25.2,00.0,0628.4,34.5
2016-11-24T02:05:00Z,0000388,01000608,-000.58,0000.24,0000.28,0000.17,0000.00,0000.28,0000.04,0000.02,0000.13,25.3,00.0,0628.5,34.5
2016-11-24T02:06:00Z,0000388,01000608,0000.65,-000.32,-000.26,0000.06,0000.14,-000.10,0000.11,0000.02,0000.21,25.3,00.0,0628.5,34.5
2016-11-24T02:07:00Z,0000388,01000608,0001.26,-000.04,0000.10,-000.04,0000.03,0000.13,0000.03,0000.07,-000.22,25.3,00.0,0628.5,34.5
2016-11-24T02:08:00Z,0000388,01000608,0000.73,0000.05,0000.71,0000.42,0000.04,0000.32,0000.03,0000.10,0000.12,25.3,00.0,0628.5,34.5
2016-11-24T02:09:00Z,0000388,01000608,-001.68,0000.93,0000.41,0000.45,0000.15,0000.22,0000.18,0000.03,0000.09,25.2,00.0,0628.5,34.5
2016-11-24T02:10:00Z,0000388,01000608,0000.02,-000.47,0000.32,-000.11,0000.02,0000.15,-000.14,0000.03,-000.23,25.2,00.0,0628.5,34.5
2016-11-24T02:11:00Z,0000388,01000608,-001.25,0000.64,0000.37,0000.54,0000.04,0000.04,-000.08,0000.10,0000.20,25.2,00.0,0628.5,34.5
2016-11-24T02:12:00Z,0000388,01000608,0000.12,0000.48,-000.09,0000.31,0000.33,0000.46,0000.18,0000.03,-000.16,25.1,00.0,0628.6,34.5
2016-11-24T02:13:00Z,0000388,01000608,0000.18,0000.64,0000.95,0000.47,-000.05,0000.27,0000.06,-000.20,-000.15,25.1,00.0,0628.5,34.5
2016-11-24T02:14:00Z,0000388,01000608,-000.16,0000.66,0000.46,0000.10,0000.10,-000.06,0000.15,-000.02,0000.29,25.1,00.0,0628.6,34.5
2016-11-24T02:15:00Z,0000388,01000608,0000.49,0000.84,0000.38,0000.23,0000.26,0000.24,0000.13,0000.06,-000.07,25.2,00.0,0628.6,34.5
2016-11-24T02:16:00Z,0000388,01000608,0000.49,0000.68,0000.40,-000.08,-000.10,0000.17,-000.03,-000.10,0000.26,25.2,00.0,0628.6,34.5
2016-11-24T02:17:00Z,0000388,01000608,0000.42,0000.44,-000.09,-000.28,-000.32,0000.39,0000.14,0000.09,-000.15,25.2,00.0,0628.6,34.5
2016-11-24T02:18:00Z,0000388,01000608,0000.89,0000.78,0000.32,0000.01,-000.02,-000.14,-000.26,0000.08,-000.15,25.3,00.0,0628.6,34.5
2016-11-24T02:19:00Z,0000388,01000608,0000.46,-000.09,0001.20,0000.46,0000.32,0000.39,0000.07,0000.02,0000.12,25.3,00.0,0628.6,34.5
2016-11-24T02:20:00Z,0000388,01000608,-000.18,0001.36,0000.79,0000.33,-000.01,0000.27,0000.13,0000.13,0000.10,25.3,00.0,0628.6,34.5
2016-11-24T02:21:00Z,0000388,01000608,0000.99,-000.40,0000.13,0000.22,0000.68,-000.04,-000.08,0000.12,0000.10,25.3,00.0,0628.7,34.5
2016-11-24T02:22:00Z,0000388,01000608,0000.81,0000.17,0000.49,-000.18,0000.16,0000.46,0000.17,0000.15,0000.44,25.3,00.0,0628.7,34.5
2016-11-24T02:23:00Z,0000388,01000608,0001.01,-000.06,0000.57,-000.25,-000.02,-000.11,0000.03,0000.10,-000.24,25.2,00.0,0628.7,34.5
2016-11-24T02:24:00Z,0000388,01000608,0000.30,0000.16,0000.97,-000.08,-000.25,0000.10,0000.02,-000.19,-000.04,25.2,00.0,0628.6,34.5
2016-11-24T02:25:00Z,0000388,01000608,0000.32,0000.17,0000.75,0000.21,0000.36,0000.36,0000.11,0000.22,0000.19,25.2,00.0,0628.6,34.5
2016-11-24T02:26:00Z,0000388,01000608,-000.16,0000.46,0000.49,0000.40,-000.17,0000.12,0000.02,0000.09,-000.01,25.2,00.0,0628.6,34.5
2016-11-24T02:27:00Z,0000388,01000608,0000.07,-000.06,0000.01,0000.02,-000.34,-000.28,-000.14,-000.20,0000.11,25.1,00.0,0628.6,34.5
2016-11-24T02:28:00Z,0000388,01000608,0000.45,-000.19,-000.04,-000.52,0000.20,-000.28,0000.04,0000.02,-000.23,25.1,00.0,0628.6,34.5
2016-11-24T02:29:00Z,0000388,01000608,-000.13,0000.77,0000.31,-000.59,-000.21,0000.04,0000.28,0000.12,0000.12,25.1,00.0,0628.6,34.5
2016-11-24T02:30:00Z,0000388,01000608,0000.17,0000.53,0000.22,0000.62,0000.02,0000.22,-000.03,-000.16,0000.03,25.2,00.0,0628.6,34.5
2016-11-24T02:31:00Z,0000388,01000608,-000.47,0000.02,0000.20,0000.44,0000.39,0000.30,-000.01,0000.22,0000.05,25.2,00.0,0628.6,34.5
2016-11-24T02:32:00Z,0000388,01000608,0000.77,0000.57,0000.31,-000.36,0000.17,0000.19,0000.11,-000.10,-000.27,25.2,00.0,0628.6,34.5
2016-11-24T02:33:00Z,0000388,01000608,0000.23,-000.15,0000.84,0000.38,0000.26,0000.30,0000.04,0000.27,0000.18,25.2,00.0,0628.6,34.5
2016-11-24T02:34:00Z,0000388,01000608,0000.38,0000.09,0000.31,0001.28,-000.63,-000.10,0000.15,0000.09,0000.27,25.2,00.0,0628.6,34.5
2016-11-24T02:35:00Z,0000388,01000608,0000.51,0000.01,0000.09,0000.63,0000.18,0000.09,0000.14,0000.08,-000.25,25.2,00.0,0628.6,34.5
2016-11-24T02:36:00Z,0000388,01000608,0000.29,0000.19,0000.64,0000.63,0000.44,-000.05,-000.03,0000.04,0000.29,25.2,00.0,0628.6,34.5
2016-11-24T02:37:00Z,0000388,01000608,0000.27,0000.78,0000.28,0000.51,0000.21,-000.22,0000.06,-000.04,-000.17,25.2,00.0,0628.6,34.4
2016-11-24T02:38:00Z,0000388,01000608,-000.45,0000.57,-000.48,0000.54,-000.10,0000.06,0000.15,0000.21,0000.36,25.2,00.0,0628.6,34.4
2016-11-24T02:39:00Z,0000388,01000608,0000.46,-000.02,0000.37,0000.11,0000.19,0000.03,-000.25,-000.12,-000.38,25.1,00.0,0628.6,34.4
2016-11-24T02:40:00Z,0000388,01000608,0000.33,0000.13,0000.06,0000.31,-000.28,-000.31,0000.20,-000.01,0000.30,25.1,00.0,0628.6,34.4
2016-11-24T02:41:00Z,0000388,01000608,0000.04,0000.36,0000.09,-000.23,-000.00,0000.20,0000.10,0000.19,-000.21,25.1,00.0,0628.7,34.4
2016-11-24T02:42:00Z,0000388,01000608,0000.80,0000.86,0000.14,0000.46,-000.15,0000.11,-000.20,-000.16,0000.02,25.0,00.0,0628.7,34.4
2016-11-24T02:43:00Z,0000388,01000608,0000.76,0000.20,0000.61,0000.46,0000.05,-000.30,0000.03,-000.03,-000.04,25.0,00.0,0628.6,34.4
2016-11-24T02:44:00Z,0000388,01000608,0000.66,0000.45,0000.64,0000.16,0000.24,0000.37,0000.10,-000.06,0000.04,25.0,00.0,0628.7,34.4
2016-11-24T02:45:00Z,0000388,01000608,0000.32,0000.95,0000.40,0000.19,-000.29,0000.32,-000.03,-000.11,0000.15,25.1,00.0,0628.7,34.5
2016-11-24T02:46:00Z,0000388,01000608,-000.24,0000.67,0000.05,0000.28,-000.30,-000.19,0000.13,0000.25,-000.06,25.1,00.0,0628.7,34.5
2016-11-24T02:47:00Z,0000388,01000608,0001.15,0000.71,0000.47,0000.33,-000.58,0000.01,0000.02,-000.15,0000.10,25.1,00.0,0628.7,34.5
2016-11-24T02:48:00Z,0000388,01000608,0000.87,-000.28,-000.24,0000.51,0000.20,-000.38,0000.05,0000.18,-000.19,25.2,00.0,0628.7,34.5
2016-11-24T02:49:00Z,0000388,01000608,0001.02,-000.04,0000.43,0000.38,-000.06,0000.04,-000.05,0000.10,0000.21,25.1,00.0,0628.7,34.5
2016-11-24T02:50:00Z,0000388,01000608,0000.15,0000.17,0000.98,0000.55,-000.20,0000.35,0000.18,0000.04,0000.06,25.1,00.0,0628.7,34.5
2016-11-24T02:51:00Z,0000388,01000608,0000.18,-000.14,0000.22,-000.30,0000.49,-000.07,0000.02,0000.18,0000.01,25.1,00.0,0628.7,34.4
2016-11-24T02:52:00Z,0000388,01000608,-000.70,0000.41,0000.31,-000.49,0000.07,-000.21,-000.07,-000.08,0000.07,25.1,00.0,0628.7,34.4
2016-11-24T02:53:00Z,0000388,01000608,-000.62,0000.54,0000.31,-000.05,0000.33,0000.34,0000.18,0000.01,-000.18,25.1,00.0,0628.7,34.4
2016-11-24T02:54:00Z,0000388,01000608,0000.07,-000.17,0000.12,0000.57,-000.00,0000.32,0000.11,0000.19,0000.41,25.0,00.0,0628.7,34.4
2016-11-24T02:55:00Z,0000388,01000608,-000.64,-000.48,0000.52,-000.34,0000.18,0000.21,-000.08,0000.06,-000.35,25.0,00.0,0628.6,34.4
2016-11-24T02:56:00Z,0000388,01000608,0000.81,0000.58,0000.32,0000.01,0000.22,0000.11,0000.07,-000.08,0000.19,25.0,00.0,0628.6,34.4
2016-11-24T02:57:00Z,0000388,41000608,,,,,,,,,,25.0,00.0,0628.6,34.4
2016-11-24T02:58:00Z,0000388,61000608,,,,,,,,,,24.8,00.0,0627.7,34.4
2016-11-24T02:59:00Z,0000388,21000608,,,,,,,,,,24.8,00.0,0627.7,34.4
2016-11-24T03:00:00Z,0000388,21000608,,,,,,,,,,24.8,00.0,0627.7,34.4
2016-11-24T03:01:00Z,0000388,21000608,,,,,,,,,,24.8,00.0,0627.7,34.4
2016-11-24T03:02:00Z,0000388,21000608,,,,,,,,,,24.8,00.0,0627.7,34.4
2016-11-24T03:03:00Z,0000388,61000608,,,,,,,,,,24.8,00.0,0627.7,34.4
2016-11-24T03:04:00Z,0000388,41000608,0000.43,0000.63,0000.17,0000.17,0000.45,0000.15,0000.20,0000.12,-000.14,25.0,00.0,0628.6,34.4
2016-11-24T03:05:00Z,0000388,01000608,0001.18,0000.37,0000.27,-000.34,0000.21,0000.12,0000.05,0000.11,0000.19,25.1,00.0,0628.7,34.4
2016-11-24T03:06:00Z,0000388,01000608,0000.66,0000.32,0000.18,-000.33,0000.13,0000.02,-000.08,0000.03,0000.14,25.1,00.0,0628.7,34.4
2016-11-24T03:07:00Z,0000388,01000608,-000.78,-000.12,0000.35,0000.14,0000.49,0000.16,0000.13,-000.01,-000.09,25.1,00.0,0628.7,34.4
2016-11-24T03:08:00Z,0000388,01000608,-000.01,0000.78,0000.41,0000.36,0000.54,0000.13,0000.05,-000.07,-000.06,25.0,00.0,0628.7,34.4
2016-11-24T03:09:00Z,0000388,01000608,0000.06,0000.44,0000.64,0000.36,0000.64,0000.23,-000.21,0000.14,0000.18,25.0,00.0,0628.7,34.4
2016-11-24T03:10:00Z,0000388,01000608,0001.59,0000.40,0000.11,0000.28,0000.12,0000.68,0000.09,-000.06,-000.21,24.9,00.0,0628.7,34.4
2016-11-24T03:11:00Z,0000388,01000608,0000.30,0000.26,-000.33,-000.06,0000.61,-000.06,-000.09,0000.09,-000.17,24.9,00.0,0628.7,34.4